Regional Weather Roundup
Issued by NWS Nashville, TN

Home | Current Version | Previous Version | Text Only | Print | Product List | Glossary On
Versions: 1 2 3 4 5 6 7 8 9 10 11 12 13 14 15 16 17 18 19 20 21 22 23 24 25 26 27 28
000
ASUS44 KOHX 281310
RWROHX
MIDDLE TENNESSEE HOURLY WEATHER ROUNDUP
NATIONAL WEATHER SERVICE NASHVILLE TN
800 AM CDT FRI APR 28 2017

NOTE: "FAIR" INDICATES FEW OR NO CLOUDS BELOW 12,000 FEET WITH
NO SIGNIFICANT WEATHER AND/OR OBSTRUCTIONS TO VISIBILITY.

* THESE REPORTS ARE NOT UNDER NWS QUALITY CONTROL AND MAY NOT
  REPORT WEATHER SUCH AS PRECIPITATION AND FOG.


TNZ005>011-023>034-057-059-062>066-078-080-281400
...NORTHERN MIDDLE TENNESSEE...

CITY           SKY/WX    TMP DP  RH WIND       PRES   REMARKS
CLARKSVILLE    CLOUDY    56  51  84 W6        29.97R
CROSSVILLE     PTSUNNY   60  54  80 CALM      30.02R
GALLATIN       SUNNY     57  54  88 VRB3      29.95F
DICKSON        MOSUNNY   54  52  93 CALM      29.91R
LEBANON        MOSUNNY   58  54  86 VRB5      29.90F
NASHVILLE      PTSUNNY   59  54  83 SE5       29.92F
PORTLAND       SUNNY     57  54  88 E5        29.92F
SMYRNA         PTSUNNY   58  54  86 CALM      29.94S
SPARTA         MOSUNNY   61  55  82 CALM      29.96R
SPRINGFIELD    SUNNY     57  54  88 SE5       29.91R
WEST NASHVILLE SUNNY     55  54  94 CALM      29.93R
$$
TNZ056-058-060-061-075>077-079-093>097-281400
...SOUTHERN MIDDLE TENNESSEE...

CITY           SKY/WX    TMP DP  RH WIND       PRES   REMARKS
COLUMBIA       SUNNY    N/A N/A N/A CALM      29.89R
FAYETTEVILLE   PTSUNNY   64  57  77 S12       29.94R
MCMINNVILLE    SUNNY     63  61  94 CALM      29.96R
MURFREESBORO   PTSUNNY   58  54  86 E6        29.91F
SHELBYVILLE    SUNNY     64  59  82 SE7       29.93F
TULLAHOMA      MOSUNNY   63  55  77 SE8       29.95F
WINCHESTER     MOSUNNY   66  57  72 E9        29.97R
$$


...KEY TO REMARKS...
VSB - VISIBILITY IN MILES
WCI - WIND CHILL INDEX
HX  - HEAT INDEX





USA.gov is the U.S. government's official web portal to all federal, state and local government web resources and services.